Zurück zum Katalog

CZ-6A DEB

AktivPO
NORAD 56641·DEBRIS·🇨🇳 China

Gestartet Nov 11, 2022 von Taiyuan Satellite Launch Center

Loading…

Nächste Überflüge (nächste 24 Stunden)

TLE

AktuellSource: Space-Track

Epoche: Sep 14, 2026, 01:07 UTC

1 56641U 22151AFR 26257.04657792  .00005282  00000-0  57791-3 0  9994
2 56641  98.6726   9.8384 0126100 259.1166  99.5834 14.82648276186904

Verfolge CZ-6A DEB in Echtzeit mit AllMySat

Download on the App Store